This is the latest recevied weather packets stored in our database for station/object OE3MNS-13. If no packets are shown the sender has not sent any weather packets the latest 10 day(s).
| Time | Temp. | Humidity | Pressure | Rain* | Wind** | Luminosity | Snow |
|---|---|---|---|---|---|---|---|
| 1778425820 | 22.22° C | 47% | 1008.6 hPa | 1.02 mm | - | 207 W/m² | - |
| 1778425222 | 22.78° C | 45% | 1008.7 hPa | 1.02 mm | - | 300 W/m² | - |
| 1778424918 | 22.78° C | 45% | 1008.6 hPa | 1.02 mm | - | 377 W/m² | - |
| 1778424320 | 22.78° C | 46% | 1008.7 hPa | 1.02 mm | - | 417 W/m² | - |
| 1778423720 | 22.78° C | 45% | 1008.8 hPa | 1.02 mm | - | 405 W/m² | - |
| 1778423119 | 22.78° C | 46% | 1009 hPa | 1.02 mm | - | 539 W/m² | - |
| 1778422522 | 23.33° C | 45% | 1009.2 hPa | 1.02 mm | - | 348 W/m² | - |
| 1778421921 | 22.78° C | 46% | 1009.4 hPa | 1.02 mm | - | 542 W/m² | - |
| 1778421618 | 22.78° C | 46% | 1009.4 hPa | 1.02 mm | - | 530 W/m² | - |
| 1778421021 | 22.78° C | 46% | 1009.6 hPa | 1.02 mm | - | 412 W/m² | - |
| 1778420719 | 22.78° C | 46% | 1009.6 hPa | 1.02 mm | - | 437 W/m² | - |
| 1778420419 | 22.78° C | 45% | 1009.8 hPa | 1.02 mm | - | 372 W/m² | - |
| 1778419821 | 22.78° C | 46% | 1009.8 hPa | 1.02 mm | - | 538 W/m² | - |
| 1778419221 | 22.78° C | 46% | 1010.1 hPa | 1.02 mm | - | 497 W/m² | - |
| 1778418921 | 22.78° C | 46% | 1010.2 hPa | 1.02 mm | - | 501 W/m² | - |
| 1778418319 | 22.78° C | 47% | 1010.3 hPa | 1.02 mm | - | 520 W/m² | - |
| 1778417719 | 22.22° C | 47% | 1010.6 hPa | 1.02 mm | - | 543 W/m² | - |
| 1778417119 | 22.22° C | 47% | 1010.7 hPa | 1.02 mm | - | 489 W/m² | - |
| 1778416818 | 22.78° C | 46% | 1010.8 hPa | 1.02 mm | - | 492 W/m² | - |
| 1778416220 | 22.78° C | 47% | 1010.8 hPa | 1.02 mm | - | 699 W/m² | - |
| 1778415919 | 22.78° C | 48% | 1010.9 hPa | 1.02 mm | - | 689 W/m² | - |
| 1778415619 | 22.78° C | 48% | 1011 hPa | 1.02 mm | - | 703 W/m² | - |
| 1778415018 | 22.22° C | 49% | 1011.4 hPa | 1.02 mm | - | 648 W/m² | - |
| 1778414717 | 22.22° C | 49% | 1011.5 hPa | 1.02 mm | - | 729 W/m² | - |
| 1778414121 | 21.67° C | 49% | 1011.7 hPa | 1.02 mm | - | 803 W/m² | - |
* Rain latest hour (hover to see other rain measurements)
** Current wind speed in m/s (hover to see current wind gust speed)